| time (UTC) | temp F | wind direction | speed knots | gust knots | rain 1hr in | rain 24hr in | rain mn in | humidity % | barometer mb |
| 20260503031509 | 66 | 348 | 3.5 | 16.5 | 0.00 | 0.00 | 0.00 | 84 | 1009.3 |
| 20260503030008 | 66 | 355 | 2.6 | 17.4 | 0.00 | 0.00 | 0.00 | 86 | 1009.4 |
| 20260503024508 | 66 | 5 | 4.3 | 16.5 | 0.00 | 0.00 | 0.00 | 90 | 1009.8 |
| 20260503021506 | 64 | 5 | 3.5 | 14.8 | 0.00 | 0.00 | 0.00 | 90 | 1009.8 |
| 20260503020005 | 64 | 44 | 7.0 | 18.2 | 0.00 | 0.00 | 0.00 | 89 | 1009.4 |
| 20260503014502 | 64 | 32 | 6.1 | 17.4 | 0.00 | 0.00 | 0.00 | 89 | 1010.0 |
| 20260503011608 | 65 | 338 | 7.8 | 15.6 | 0.00 | 0.00 | 0.00 | 87 | 1011.2 |
| 20260503010121 | 65 | 26 | 1.7 | 6.1 | 0.00 | 0.00 | 0.00 | 86 | 1010.9 |
| 20260503004557 | 66 | 332 | 2.6 | 11.3 | 0.00 | 0.00 | 0.00 | 82 | 1011.2 |
| 20260503001559 | 69 | 360 | 6.1 | 20.0 | 0.00 | 0.00 | 0.00 | 72 | 1010.9 |
| 20260503000057 | 70 | 333 | 7.8 | 18.2 | 0.00 | 0.00 | 0.00 | 70 | 1011.2 |
| 20260502234554 | 70 | 355 | 4.3 | 10.4 | 0.00 | 0.00 | 0.00 | 68 | 1010.9 |
| 20260502231554 | 70 | 12 | 5.2 | 18.2 | 0.00 | 0.00 | 0.00 | 68 | 1010.8 |
| 20260502230052 | 70 | 337 | 6.1 | 15.6 | 0.00 | 0.00 | 0.00 | 69 | 1010.6 |
| 20260502224555 | 69 | 355 | 4.3 | 10.4 | 0.00 | 0.00 | 0.00 | 70 | 1010.7 |
| 20260502221551 | 68 | 360 | 4.3 | 12.2 | 0.00 | 0.00 | 0.00 | 72 | 1011.3 |
| 20260502220049 | 68 | 355 | 3.5 | 10.4 | 0.00 | 0.00 | 0.00 | 73 | 1011.6 |
| 20260502214605 | 68 | 327 | 1.7 | 11.3 | 0.00 | 0.00 | 0.00 | 73 | 1011.5 |
| 20260502211600 | 68 | 355 | 0.9 | 9.6 | 0.00 | 0.00 | 0.00 | 71 | 1011.5 |
| 20260502210053 | 68 | 305 | 4.3 | 13.9 | 0.00 | 0.00 | 0.00 | 70 | 1011.9 |
| 20260502204550 | 69 | 360 | 4.3 | 12.2 | 0.00 | 0.00 | 0.00 | 69 | 1012.1 |
| 20260502201550 | 70 | 304 | 4.3 | 12.2 | 0.00 | 0.00 | 0.00 | 65 | 1012.0 |
| 20260502200046 | 70 | 336 | 1.7 | 10.4 | 0.00 | 0.00 | 0.00 | 64 | 1012.1 |
| 20260502194548 | 71 | 346 | 2.6 | 13.0 | 0.00 | 0.00 | 0.00 | 62 | 1012.1 |
| 20260502191545 | 71 | 315 | 5.2 | 13.0 | 0.00 | 0.00 | 0.00 | 59 | 1011.9 |
| 20260502190045 | 71 | 324 | 5.2 | 13.9 | 0.00 | 0.00 | 0.00 | 59 | 1011.6 |
| 20260502184544 | 71 | 360 | 3.5 | 11.3 | 0.00 | 0.00 | 0.00 | 59 | 1011.4 |
| 20260502181538 | 68 | 327 | 2.6 | 10.4 | 0.00 | 0.00 | 0.00 | 65 | 1011.7 |
| 20260502161528 | 64 | 16 | 0.0 | 0.0 | 0.00 | 0.00 | 0.00 | 73 | 1012.6 |
| 20260502151525 | 66 | 16 | 0.0 | 0.0 | 0.00 | 0.00 | 0.00 | 68 | 1012.9 |
| 20260502121505 | 71 | 13 | 0.0 | 0.0 | 0.00 | 0.00 | 0.00 | 55 | 1013.9 |
| 20260502114502 | 71 | 55 | 0.0 | 0.0 | 0.00 | 0.00 | 0.00 | 55 | 1014.2 |
| 20260502111501 | 71 | 33 | 0.0 | 2.6 | 0.00 | 0.00 | 0.00 | 55 | 1014.4 |
| 20260502110100 | 71 | 57 | 0.9 | 5.2 | 0.00 | 0.00 | 0.00 | 55 | 1014.4 |
| 20260502104600 | 71 | 39 | 1.7 | 5.2 | 0.00 | 0.00 | 0.00 | 55 | 1014.4 |
| 20260502101618 | 72 | 56 | 0.9 | 4.3 | 0.00 | 0.00 | 0.00 | 54 | 1014.5 |
| 20260502100111 | 72 | 20 | 0.0 | 3.5 | 0.00 | 0.00 | 0.00 | 54 | 1014.5 |
| 20260502070107 | 75 | 28 | 1.7 | 5.2 | 0.00 | 0.00 | 0.00 | 50 | 1014.4 |
| 20260502064620 | 75 | 5 | 2.6 | 6.1 | 0.00 | 0.00 | 0.00 | 49 | 1014.5 |
| 20260502061552 | 76 | 5 | 1.7 | 4.3 | 0.00 | 0.00 | 0.00 | 49 | 1014.5 |
| 20260502060051 | 76 | 26 | 0.0 | 3.5 | 0.00 | 0.00 | 0.00 | 50 | 1014.7 |
| 20260502054550 | 75 | 38 | 1.7 | 5.2 | 0.00 | 0.00 | 0.00 | 50 | 1014.7 |
| 20260502051548 | 75 | 14 | 1.7 | 6.1 | 0.00 | 0.00 | 0.00 | 50 | 1014.8 |
| 20260502050048 | 75 | 5 | 1.7 | 6.1 | 0.00 | 0.00 | 0.00 | 50 | 1014.9 |
| 20260502044545 | 75 | 22 | 0.0 | 7.0 | 0.00 | 0.00 | 0.00 | 50 | 1015.1 |
| 20260502041555 | 74 | 360 | 1.7 | 6.1 | 0.00 | 0.00 | 0.00 | 50 | 1015.4 |
| 20260502040042 | 75 | 11 | 1.7 | 4.3 | 0.00 | 0.00 | 0.00 | 50 | 1015.6 |
| 20260502034539 | 75 | 5 | 1.7 | 6.1 | 0.00 | 0.00 | 0.00 | 49 | 1015.8 |